GW0206 Weather Reports


time (UTC)temp
C
wind
direction
speed
KPH
gust
KPH
rain 1hr
cm
rain 24hr
cm
rain mn
cm
humidity
%
barometer
mb
20260831191504 30 71 4.8 16.1 0.00 0.00 0.00 66 1018.9
20260831191003 31 132 3.2 14.5 0.00 0.00 0.00 67 1019.0
20260831190504 31 94 4.8 16.1 0.00 0.00 0.00 63 1019.1
20260831190016 31 132 6.4 16.1 0.00 0.00 0.00 64 1019.2
20260831185503 30 101 6.4 14.5 0.00 0.00 0.00 66 1019.2
20260831185004 31 159 3.2 11.3 0.00 0.00 0.00 67 1019.3
20260831184519 31 59 4.8 9.7 0.00 0.00 0.00 66 1019.3
20260831184004 31 103 3.2 14.5 0.00 0.00 0.00 68 1019.3
20260831183506 30 99 3.2 14.5 0.00 0.00 0.00 71 1019.3
20260831183006 30 95 8.0 19.3 0.00 0.00 0.00 67 1019.4
20260831182504 30 122 4.8 19.3 0.00 0.00 0.00 67 1019.4
20260831182003 30 78 3.2 14.5 0.00 0.00 0.00 68 1019.5
20260831181508 30 97 6.4 16.1 0.00 0.00 0.00 68 1019.5
20260831181003 29 126 8.0 16.1 0.00 0.00 0.00 67 1019.5
20260831180503 29 50 9.7 16.1 0.00 0.00 0.00 69 1019.5
20260831180015 28 107 6.4 14.5 0.00 0.00 0.00 70 1019.6
20260831175508 28 104 3.2 14.5 0.00 0.00 0.00 72 1019.6
20260831175011 28 103 9.7 14.5 0.00 0.00 0.00 70 1019.6
20260831174508 28 128 4.8 11.3 0.00 0.00 0.00 70 1019.6
20260831174007 28 90 1.6 14.5 0.00 0.00 0.00 70 1019.6
20260831173510 28 69 4.8 14.5 0.00 0.00 0.00 69 1019.7
20260831173027 29 78 6.4 12.9 0.00 0.00 0.00 68 1019.6
20260831172505 29 84 4.8 17.7 0.00 0.00 0.00 68 1019.7
20260831172006 29 105 8.0 17.7 0.00 0.00 0.00 66 1019.6
20260831171506 30 105 9.7 16.1 0.00 0.00 0.00 67 1019.7
20260831171003 29 102 6.4 16.1 0.00 0.00 0.00 68 1019.7
20260831170503 29 110 4.8 17.7 0.00 0.00 0.00 67 1019.8
20260831170012 29 85 8.0 17.7 0.00 0.00 0.00 66 1019.8
20260831165506 29 106 6.4 16.1 0.00 0.00 0.00 68 1019.9
20260831165004 29 136 6.4 16.1 0.00 0.00 0.00 66 1019.9
20260831164519 29 67 8.0 16.1 0.00 0.00 0.00 65 1019.9
20260831164010 29 112 6.4 12.9 0.00 0.00 0.00 65 1019.8
20260831163510 29 86 4.8 12.9 0.00 0.00 0.00 66 1019.8
20260831163008 29 113 6.4 14.5 0.00 0.00 0.00 65 1019.8
20260831162508 29 15 6.4 14.5 0.00 0.00 0.00 65 1019.8
20260831162012 29 48 3.2 11.3 0.00 0.00 0.00 69 1019.8
20260831161533 28 69 4.8 9.7 0.00 0.00 0.00 71 1019.9
20260831161008 28 58 3.2 9.7 0.00 0.00 0.00 71 1019.9
20260831160510 28 71 1.6 11.3 0.00 0.00 0.00 73 1019.8
20260831160037 28 69 3.2 11.3 0.00 0.00 0.00 72 1019.8
20260831155505 27 17 1.6 11.3 0.00 0.00 0.00 73 1019.8
20260831155004 27 19 3.2 11.3 0.00 0.00 0.00 74 1019.8
20260831154540 27 56 6.4 9.7 0.00 0.00 0.00 77 1019.9
20260831154007 27 31 1.6 9.7 0.00 0.00 0.00 77 1019.9
20260831153505 26 46 4.8 9.7 0.00 0.00 0.00 78 1019.9
20260831153019 26 73 3.2 12.9 0.00 0.00 0.00 81 1019.9
20260831152511 26 61 3.2 12.9 0.00 0.00 0.00 81 1020.0
20260831152010 25 96 1.6 12.9 0.00 0.00 0.00 84 1020.0
20260831151520 25 80 4.8 11.3 0.00 0.00 0.00 84 1020.1
20260831151014 24 18 0.0 6.4 0.00 0.00 0.00 87 1020.0
20260831150513 23 352 3.2 6.4 0.00 0.00 0.00 88 1020.1
20260831150011 23 67 3.2 6.4 0.00 0.00 0.00 89 1020.1
20260831145507 23 30 1.6 6.4 0.00 0.00 0.00 89 1020.1
20260831145019 23 42 1.6 6.4 0.00 0.00 0.00 90 1020.2
20260831144534 23 61 3.2 6.4 0.00 0.00 0.00 90 1020.2
20260831144006 23 34 3.2 6.4 0.00 0.00 0.00 90 1020.2
20260831143508 23 44 1.6 6.4 0.00 0.00 0.00 90 1020.1
20260831143016 23 59 1.6 6.4 0.00 0.00 0.00 90 1020.1
20260831142508 22 40 1.6 6.4 0.00 0.00 0.00 90 1020.0
20260831142011 22 80 1.6 8.0 0.00 0.00 0.00 91 1020.0
20260831141523 22 58 3.2 8.0 0.00 0.00 0.00 91 1020.0
20260831141013 22 52 3.2 8.0 0.00 0.00 0.00 92 1020.0
20260831140508 22 28 3.2 6.4 0.00 0.00 0.00 92 1020.0
20260831140029 22 28 1.6 6.4 0.00 0.00 0.00 92 1020.0
20260831135516 22 98 1.6 6.4 0.00 0.00 0.00 92 1019.9
20260831135012 22 51 0.0 3.2 0.00 0.00 0.00 92 1019.9
20260831134525 22 51 0.0 1.6 0.00 0.00 0.00 92 1019.9
20260831134011 22 51 0.0 4.8 0.00 0.00 0.00 92 1019.9
20260831133513 22 51 0.0 4.8 0.00 0.00 0.00 92 1019.9
20260831133019 22 51 1.6 4.8 0.00 0.00 0.00 93 1019.8
20260831132513 22 5 1.6 6.4 0.00 0.00 0.00 93 1019.8
20260831132006 21 5 1.6 6.4 0.00 0.00 0.00 93 1019.8
20260831131521 21 348 1.6 6.4 0.00 0.00 0.00 93 1019.8
20260831131013 21 319 0.0 8.0 0.00 0.00 0.00 93 1019.9
20260831130510 21 346 0.0 8.0 0.00 0.00 0.00 94 1020.0
20260831130028 21 360 1.6 6.4 0.00 0.00 0.00 94 1020.0
20260831125513 21 20 0.0 6.4 0.00 0.00 0.00 94 1019.9
20260831125010 21 9 0.0 4.8 0.00 0.00 0.00 94 1019.9
20260831124529 21 27 1.6 4.8 0.00 0.00 0.00 95 1019.9
20260831124013 21 329 0.0 3.2 0.00 0.00 0.00 94 1019.8
20260831123509 21 329 0.0 3.2 0.00 0.00 0.00 95 1019.8
20260831123026 21 329 0.0 3.2 0.00 0.00 0.00 95 1019.8
20260831122516 21 329 0.0 3.2 0.00 0.00 0.00 95 1019.8
20260831122015 20 20 0.0 3.2 0.00 0.00 0.00 95 1019.8
20260831121518 20 20 1.6 3.2 0.00 0.00 0.00 95 1019.9
20260831121015 20 20 0.0 3.2 0.00 0.00 0.00 95 1019.9
20260831120516 20 20 0.0 4.8 0.00 0.00 0.00 95 1020.0
20260831120031 20 20 0.0 4.8 0.00 0.00 0.00 95 1019.9
20260831115513 20 360 1.6 4.8 0.00 0.00 0.00 95 1019.9
20260831115010 20 360 1.6 4.8 0.00 0.00 0.00 95 1019.9
20260831114543 20 360 0.0 4.8 0.00 0.00 0.00 95 1019.9
20260831114010 20 5 1.6 4.8 0.00 0.00 0.00 95 1019.9
20260831113514 20 29 0.0 6.4 0.00 0.00 0.00 94 1019.9
20260831113033 20 11 1.6 6.4 0.00 0.00 0.00 94 1019.9
20260831112508 20 22 1.6 4.8 0.00 0.00 0.00 94 1019.9
20260831112012 20 23 1.6 4.8 0.00 0.00 0.00 94 1019.7
20260831111513 20 33 1.6 4.8 0.00 0.00 0.00 94 1019.7
20260831111009 20 13 0.0 6.4 0.00 0.00 0.00 94 1019.6
20260831110510 20 22 1.6 8.0 0.00 0.00 0.00 94 1019.5
20260831110019 20 360 1.6 8.0 0.00 0.00 0.00 94 1019.5
20260831105511 20 13 1.6 6.4 0.00 0.00 0.00 94 1019.4
20260831105008 20 360 1.6 4.8 0.00 0.00 0.00 94 1019.3
20260831104535 20 18 1.6 4.8 0.00 0.00 0.00 94 1019.4
20260831104015 20 9 1.6 4.8 0.00 0.00 0.00 94 1019.3
20260831103514 20 360 0.0 4.8 0.00 0.00 0.00 93 1019.3
20260831103023 20 11 1.6 4.8 0.00 0.00 0.00 93 1019.3
20260831102514 20 22 0.0 4.8 0.00 0.00 0.00 93 1019.3
20260831102018 20 360 1.6 4.8 0.00 0.00 0.00 93 1019.4
20260831101521 20 322 1.6 4.8 0.00 0.00 0.00 93 1019.3
20260831101013 20 328 1.6 4.8 0.00 0.00 0.00 93 1019.2
20260831100516 20 317 1.6 4.8 0.00 0.00 0.00 93 1019.1
20260831100032 20 318 1.6 6.4 0.00 0.00 0.00 93 1019.1
20260831095506 20 341 1.6 6.4 0.00 0.00 0.00 93 1019.1
20260831095013 20 331 1.6 8.0 0.00 0.00 0.00 93 1019.0
20260831094538 20 320 1.6 8.0 0.00 0.00 0.00 93 1019.0
20260831094010 20 298 1.6 6.4 0.00 0.00 0.00 93 1018.9
20260831093511 20 321 0.0 6.4 0.00 0.00 0.00 93 1019.0
20260831093031 20 5 1.6 6.4 0.00 0.00 0.00 93 1019.1
20260831092516 21 306 1.6 8.0 0.00 0.00 0.00 93 1019.1
20260831092005 20 324 3.2 8.0 0.00 0.00 0.00 93 1019.1
20260831091538 21 310 1.6 6.4 0.00 0.00 0.00 92 1019.2
20260831091014 20 306 1.6 6.4 0.00 0.00 0.00 92 1019.2
20260831090518 21 299 1.6 11.3 0.00 0.00 0.00 92 1019.2
20260831090023 20 325 3.2 11.3 0.00 0.00 0.00 92 1019.1
20260831085518 20 323 4.8 8.0 0.00 0.00 0.00 92 1019.2
20260831085016 20 323 1.6 6.4 0.00 0.00 0.00 92 1019.2
20260831084536 21 292 3.2 8.0 0.00 0.00 0.00 92 1019.2
20260831084003 21 308 3.2 8.0 0.00 0.00 0.00 92 1019.2
20260831083504 21 310 4.8 8.0 0.00 0.00 0.00 92 1019.3
20260831083012 21 325 3.2 8.0 0.00 0.00 0.00 92 1019.3
20260831082510 21 309 1.6 8.0 0.00 0.00 0.00 92 1019.2
20260831082006 21 301 3.2 8.0 0.00 0.00 0.00 92 1019.2
20260831081507 21 322 3.2 8.0 0.00 0.00 0.00 92 1019.2
20260831081005 21 314 1.6 8.0 0.00 0.00 0.00 92 1019.2
20260831080504 21 319 3.2 8.0 0.00 0.00 0.00 92 1019.2
20260831080009 21 332 3.2 8.0 0.00 0.00 0.00 92 1019.2
20260831075505 21 314 3.2 11.3 0.00 0.00 0.00 91 1019.2
20260831075006 21 311 6.4 11.3 0.00 0.00 0.00 91 1019.2
20260831074504 21 308 3.2 8.0 0.00 0.00 0.00 91 1019.2
20260831074005 21 305 3.2 8.0 0.00 0.00 0.00 91 1019.1
20260831073506 21 311 3.2 8.0 0.00 0.00 0.00 91 1019.2
20260831073024 21 302 3.2 12.9 0.00 0.00 0.00 91 1019.2
20260831072505 21 289 3.2 12.9 0.00 0.00 0.00 91 1019.2
20260831072004 21 305 3.2 8.0 0.00 0.00 0.00 91 1019.2
20260831071518 21 311 3.2 9.7 0.00 0.00 0.00 91 1019.2
20260831071014 21 306 4.8 12.9 0.00 0.00 0.00 90 1019.2
20260831070503 21 299 4.8 12.9 0.00 0.00 0.00 90 1019.3
20260831070008 21 311 3.2 6.4 0.00 0.00 0.00 90 1019.3
20260831065504 21 316 3.2 6.4 0.00 0.00 0.00 90 1019.4
20260831065004 21 317 1.6 4.8 0.00 0.00 0.00 90 1019.5
20260831064512 21 312 3.2 6.4 0.00 0.00 0.00 90 1019.5
20260831064006 21 311 3.2 8.0 0.00 0.00 0.00 90 1019.5
20260831063507 21 317 1.6 8.0 0.00 0.00 0.00 90 1019.6
20260831063008 21 308 3.2 8.0 0.00 0.00 0.00 90 1019.6
20260831062506 21 323 4.8 8.0 0.00 0.00 0.00 90 1019.8
20260831062008 21 317 3.2 11.3 0.00 0.00 0.00 90 1019.8
20260831061524 21 311 4.8 11.3 0.00 0.00 0.00 90 1019.8
20260831061005 21 304 3.2 8.0 0.00 0.00 0.00 90 1019.8
20260831060507 21 333 3.2 6.4 0.00 0.00 0.00 90 1019.9
20260831060029 21 313 3.2 6.4 0.00 0.00 0.00 90 1020.0
20260831055503 21 291 3.2 6.4 0.00 0.00 0.00 90 1019.9
20260831055012 21 281 3.2 6.4 0.00 0.00 0.00 89 1019.8
20260831054510 21 294 1.6 4.8 0.00 0.00 0.00 89 1019.9
20260831054003 21 305 1.6 4.8 0.00 0.00 0.00 89 1019.9
20260831053503 21 305 1.6 4.8 0.00 0.00 0.00 89 1020.0
20260831053015 21 304 3.2 4.8 0.00 0.00 0.00 89 1020.0
20260831052508 21 296 1.6 6.4 0.00 0.00 0.00 89 1020.0
20260831052007 21 327 0.0 8.0 0.00 0.00 0.00 90 1020.1
20260831051528 21 303 3.2 8.0 0.00 0.00 0.00 90 1019.9
20260831051011 21 331 0.0 6.4 0.00 0.00 0.00 91 1019.9
20260831050510 21 360 1.6 6.4 0.00 0.00 0.00 91 1019.9
20260831050010 21 360 1.6 6.4 0.00 0.00 0.00 91 1020.0
20260831045507 21 317 1.6 6.4 0.00 0.00 0.00 91 1019.8
20260831045016 21 324 1.6 6.4 0.00 0.00 0.00 91 1019.7
20260831044532 21 322 1.6 8.0 0.00 0.00 0.00 91 1019.7
20260831044006 21 302 3.2 8.0 0.00 0.00 0.00 91 1019.8
20260831043510 21 313 3.2 8.0 0.00 0.00 0.00 91 1019.8
20260831043031 21 318 3.2 6.4 0.00 0.00 0.00 91 1019.9
20260831042507 21 317 3.2 6.4 0.00 0.00 0.00 91 1020.0
20260831042007 21 288 1.6 6.4 0.00 0.00 0.00 91 1020.1
20260831041518 21 302 3.2 6.4 0.00 0.00 0.00 91 1020.2
20260831041008 21 289 1.6 4.8 0.00 0.00 0.00 91 1020.2
20260831040504 21 255 1.6 4.8 0.00 0.00 0.00 91 1020.1
20260831040034 21 255 1.6 3.2 0.00 0.00 0.00 91 1020.1
20260831035515 21 255 1.6 3.2 0.00 0.00 0.00 91 1020.1
20260831035013 21 255 0.0 3.2 0.00 0.00 0.00 90 1020.2
20260831034517 21 255 0.0 3.2 0.00 0.00 0.00 90 1020.3
20260831034011 21 255 0.0 3.2 0.00 0.00 0.00 90 1020.3
20260831033515 21 255 1.6 4.8 0.00 0.00 0.00 90 1020.3
20260831033035 21 255 1.6 4.8 0.00 0.00 0.00 90 1020.4
20260831032513 22 281 1.6 4.8 0.00 0.00 0.00 90 1020.3
20260831032014 22 281 1.6 4.8 0.00 0.00 0.00 89 1020.4
20260831031531 22 289 0.0 4.8 0.00 0.00 0.00 89 1020.5
20260831031007 22 286 3.2 6.4 0.00 0.00 0.00 89 1020.5
20260831030506 22 292 3.2 9.7 0.00 0.00 0.00 89 1020.5
20260831030019 22 293 3.2 9.7 0.00 0.00 0.00 89 1020.4
20260831025510 22 289 3.2 9.7 0.00 0.00 0.00 89 1020.5
20260831025010 22 294 3.2 9.7 0.00 0.00 0.00 89 1020.5
20260831024525 22 298 3.2 9.7 0.00 0.00 0.00 88 1020.6
20260831024010 22 276 1.6 9.7 0.00 0.00 0.00 88 1020.7
20260831023516 22 276 3.2 6.4 0.00 0.00 0.00 88 1020.7
20260831023025 22 261 3.2 9.7 0.00 0.00 0.00 88 1020.7
20260831022512 22 261 3.2 9.7 0.00 0.00 0.00 88 1020.7
20260831022016 22 262 3.2 8.0 0.00 0.00 0.00 88 1020.8
20260831021516 22 236 3.2 8.0 0.00 0.00 0.00 88 1020.8
20260831021012 22 244 3.2 6.4 0.00 0.00 0.00 87 1020.8
20260831020516 22 242 3.2 6.4 0.00 0.00 0.00 87 1020.9
20260831020034 22 243 3.2 4.8 0.00 0.00 0.00 87 1020.9
20260831015514 22 248 3.2 6.4 0.00 0.00 0.00 87 1020.9
20260831015009 22 248 3.2 6.4 0.00 0.00 0.00 86 1021.0
20260831014534 22 248 1.6 4.8 0.00 0.00 0.00 86 1021.0
20260831014011 22 241 1.6 4.8 0.00 0.00 0.00 86 1020.9
20260831013514 22 241 1.6 4.8 0.00 0.00 0.00 86 1020.9
20260831013028 22 248 1.6 3.2 0.00 0.00 0.00 86 1020.9
20260831012512 22 242 0.0 3.2 0.00 0.00 0.00 87 1021.0
20260831012008 22 242 0.0 3.2 0.00 0.00 0.00 87 1021.0
20260831011536 22 242 1.6 3.2 0.00 0.00 0.00 86 1021.0
20260831011016 22 242 1.6 3.2 0.00 0.00 0.00 86 1020.9
20260831010518 22 242 1.6 6.4 0.00 0.00 0.00 86 1020.9
20260831010029 22 242 1.6 6.4 0.00 0.00 0.00 86 1020.9
20260831005517 22 231 3.2 6.4 0.00 0.00 0.00 85 1020.7
20260831005018 22 199 1.6 4.8 0.00 0.00 0.00 85 1020.7
20260831004536 22 196 0.0 4.8 0.00 0.00 0.00 85 1020.7
20260831004016 22 196 0.0 3.2 0.00 0.00 0.00 85 1020.7
20260831003512 22 190 0.0 3.2 0.00 0.00 0.00 84 1020.6
20260831003030 23 186 0.0 4.8 0.00 0.00 0.00 84 1020.5
20260831002511 23 198 0.0 4.8 0.00 0.00 0.00 84 1020.6
20260831002014 23 195 0.0 6.4 0.00 0.00 0.00 84 1020.5
20260831001530 23 167 1.6 6.4 0.00 0.00 0.00 83 1020.4
20260831001016 23 117 0.0 1.6 0.00 0.00 0.00 83 1020.4
20260831000514 23 117 0.0 0.0 0.00 0.00 0.00 83 1020.1
20260831000033 23 117 0.0 0.0 0.00 0.00 0.00 83 1020.0
20260830235518 23 117 0.0 0.0 0.00 0.00 0.00 83 1019.9
20260830235018 23 117 0.0 0.0 0.00 0.00 0.00 83 1019.7
20260830234540 23 117 0.0 1.6 0.00 0.00 0.00 82 1019.6
20260830234005 23 117 0.0 1.6 0.00 0.00 0.00 82 1019.5
20260830233506 23 117 0.0 3.2 0.00 0.00 0.00 82 1019.5
20260830233003 23 117 0.0 3.2 0.00 0.00 0.00 82 1019.4
20260830232504 23 117 0.0 0.0 0.00 0.00 0.00 81 1019.3
20260830232003 23 117 0.0 0.0 0.00 0.00 0.00 81 1019.3
20260830231503 23 117 0.0 0.0 0.00 0.00 0.00 80 1019.2
20260830231003 24 117 0.0 0.0 0.00 0.00 0.00 80 1019.2
20260830230505 24 117 0.0 3.2 0.00 0.00 0.00 80 1019.1
20260830230008 24 117 0.0 3.2 0.00 0.00 0.00 80 1019.1
20260830225504 24 117 1.6 6.4 0.00 0.00 0.00 79 1019.1
20260830225003 24 122 1.6 9.7 0.00 0.00 0.00 80 1019.2
20260830224511 24 98 3.2 16.1 0.00 0.00 0.00 79 1019.0
20260830224004 24 307 8.0 16.1 0.00 0.00 0.00 78 1018.4
20260830223503 24 312 6.4 11.3 0.00 0.00 0.00 78 1018.4
20260830223010 24 310 3.2 6.4 0.00 0.00 0.00 77 1018.8
20260830222510 25 320 1.6 4.8 0.00 0.00 0.00 78 1018.9
20260830222002 25 302 1.6 4.8 0.00 0.00 0.00 78 1019.0
20260830221508 25 309 1.6 4.8 0.00 0.00 0.00 77 1019.1
20260830221003 25 302 3.2 4.8 0.00 0.00 0.00 77 1019.1
20260830220503 25 297 1.6 4.8 0.00 0.00 0.00 77 1019.2
20260830220004 25 234 0.0 1.6 0.00 0.00 0.00 78 1019.2
20260830215504 25 234 0.0 3.2 0.00 0.00 0.00 75 1019.2
20260830215002 25 234 0.0 3.2 0.00 0.00 0.00 78 1019.4
20260830214511 25 234 0.0 1.6 0.00 0.00 0.00 80 1019.4
20260830214006 25 242 0.0 3.2 0.00 0.00 0.00 81 1019.3
20260830213507 24 242 0.0 3.2 0.00 0.00 0.00 82 1019.4
20260830213015 24 242 0.0 3.2 0.00 0.00 0.00 81 1019.3
20260830212503 24 242 0.0 4.8 0.00 0.00 0.00 79 1019.2
20260830212003 25 242 1.6 4.8 0.00 0.00 0.00 77 1019.1
20260830211518 25 298 1.6 3.2 0.00 0.00 0.00 77 1019.1
20260830211012 25 298 1.6 3.2 0.00 0.00 0.00 78 1019.1
20260830210502 25 61 0.0 3.2 0.00 0.00 0.00 77 1019.2
20260830210013 25 68 0.0 9.7 0.00 0.00 0.00 78 1019.3
20260830205504 25 55 1.6 9.7 0.00 0.00 0.00 75 1019.4
20260830205003 25 57 3.2 11.3 0.00 0.00 0.00 76 1019.4
20260830204507 25 38 4.8 11.3 0.00 0.00 0.00 74 1019.4
20260830204003 26 17 3.2 8.0 0.00 0.00 0.00 74 1019.5
20260830203503 26 55 3.2 8.0 0.00 0.00 0.00 74 1019.6
20260830203006 26 52 1.6 8.0 0.00 0.00 0.00 74 1019.6
20260830202507 26 33 0.0 4.8 0.00 0.00 0.00 73 1019.7
20260830202007 26 33 1.6 6.4 0.00 0.00 0.00 72 1019.9
20260830201523 26 79 3.2 6.4 0.00 0.00 0.00 72 1019.9
20260830201004 26 52 1.6 6.4 0.00 0.00 0.00 71 1019.9
20260830200508 26 49 3.2 8.0 0.00 0.00 0.00 72 1020.0
20260830200026 26 119 3.2 8.0 0.00 0.00 0.00 71 1020.1
20260830195513 26 80 3.2 6.4 0.00 0.00 0.00 72 1020.2
20260830195004 26 63 0.0 6.4 0.00 0.00 0.00 74 1020.3
20260830194517 26 47 3.2 8.0 0.00 0.00 0.00 72 1020.3
20260830194015 26 55 4.8 8.0 0.00 0.00 0.00 72 1020.4
20260830193503 26 107 0.0 4.8 0.00 0.00 0.00 74 1020.6
20260830193013 26 128 1.6 4.8 0.00 0.00 0.00 73 1020.6
20260830192505 26 119 1.6 4.8 0.00 0.00 0.00 74 1020.7
20260830192004 25 101 0.0 4.8 0.00 0.00 0.00 73 1020.8